• In Romania
  • List of Countries
  • For 7 days
  • Water Temperature
  • Satellite Maps
  • Weather Map
  • Weather Widgets
  • user-avatar
    Login

    Hourly Weather Wien

    Today, 20 January, Saturday

    Time Temperature Precipitation Wind Pressure Humidity
    00:00 -1°C° 0 mm 2 mps 741 mmHg 83%
    01:00 -1°C° 0 mm 2 mps 741 mmHg 85%
    02:00 -1°C° 0 mm 2 mps 740 mmHg 85%
    03:00 +1°C° 0 mm 1 mps 740 mmHg 85%
    04:00 +1°C° 0 mm 1 mps 740 mmHg 86%
    05:00 +1°C° 0.3 mm 1 mps 740 mmHg 86%
    06:00 +1°C° 0.3 mm 1 mps 740 mmHg 87%
    07:00 +1°C° 0 mm 2 mps 740 mmHg 88%
    08:00 +1°C° 0.2 mm 2 mps 740 mmHg 85%
    09:00 +1°C° 0.2 mm 3 mps 740 mmHg 81%
    10:00 +1°C° 0.2 mm 4 mps 740 mmHg 78%
    11:00 +1°C° 0 mm 4 mps 740 mmHg 74%
    12:00 +3°C° 0 mm 3 mps 739 mmHg 71%
    13:00 +4°C° 0 mm 3 mps 739 mmHg 68%
    14:00 +3°C° 0.2 mm 3 mps 739 mmHg 72%
    15:00 +3°C° 0.2 mm 2 mps 738 mmHg 76%
    16:00 +4°C° 0.2 mm 1 mps 738 mmHg 80%
    17:00 +2°C° 0 mm 2 mps 737 mmHg 81%
    18:00 +1°C° 0 mm 2 mps 737 mmHg 83%
    19:00 +1°C° 0 mm 2 mps 736 mmHg 85%
    20:00 +1°C° 0 mm 2 mps 736 mmHg 85%
    21:00 -1°C° 0 mm 3 mps 735 mmHg 86%
    22:00 -2°C° 0 mm 4 mps 734 mmHg 86%
    23:00 -2°C° 0 mm 4 mps 734 mmHg 86%

    Tomorrow, 21 January, Sunday

    Time Temperature Precipitation Wind Pressure Humidity
    00:00 -1°C° 0 mm 4 mps 733 mmHg 85%
    01:00 -1°C° 0 mm 4 mps 733 mmHg 85%
    02:00 -1°C° 0 mm 3 mps 733 mmHg 87%
    03:00 -1°C° 0 mm 2 mps 733 mmHg 88%
    04:00 -1°C° 0 mm 2 mps 733 mmHg 90%
    05:00 +1°C° 0 mm 1 mps 733 mmHg 91%
    06:00 0°C° 0 mm 1 mps 733 mmHg 91%
    07:00 0°C° 0 mm 1 mps 733 mmHg 92%
    08:00 +1°C° 0.1 mm 1 mps 733 mmHg 91%
    09:00 +2°C° 0.1 mm 1 mps 734 mmHg 90%
    10:00 +1°C° 0.1 mm 2 mps 734 mmHg 89%
    11:00 +1°C° 0.3 mm 2 mps 735 mmHg 88%
    12:00 +1°C° 0.3 mm 3 mps 735 mmHg 88%
    13:00 +1°C° 0.3 mm 3 mps 735 mmHg 88%
    14:00 +1°C° 0.4 mm 3 mps 736 mmHg 88%
    15:00 0°C° 0.4 mm 4 mps 737 mmHg 88%
    16:00 0°C° 0.4 mm 4 mps 738 mmHg 88%
    17:00 -1°C° 0.2 mm 5 mps 739 mmHg 87%
    18:00 -1°C° 0.2 mm 5 mps 740 mmHg 86%
    19:00 -2°C° 0.2 mm 6 mps 741 mmHg 85%
    20:00 -2°C° 0 mm 6 mps 742 mmHg 85%
    21:00 -3°C° 0 mm 6 mps 743 mmHg 84%
    22:00 -3°C° 0 mm 6 mps 743 mmHg 84%
    23:00 -4°C° 0 mm 5 mps 743 mmHg 85%

    Day after tomorrow, 22 January, Monday

    Time Temperature Precipitation Wind Pressure Humidity
    00:00 -4°C° 0 mm 4 mps 744 mmHg 86%
    01:00 -4°C° 0 mm 4 mps 744 mmHg 86%
    02:00 -5°C° 0 mm 3 mps 744 mmHg 87%
    03:00 -5°C° 0 mm 3 mps 743 mmHg 88%
    04:00 -4°C° 0 mm 2 mps 743 mmHg 88%
    05:00 -4°C° 0 mm 2 mps 743 mmHg 88%
    06:00 -2°C° 0 mm 1 mps 743 mmHg 87%
    07:00 -1°C° 0 mm 1 mps 742 mmHg 86%
    08:00 -1°C° 0 mm 1 mps 743 mmHg 84%
    09:00 0°C° 0 mm 1 mps 743 mmHg 83%
    10:00 0°C° 0 mm 1 mps 743 mmHg 81%
    11:00 +1°C° 0 mm 1 mps 743 mmHg 79%
    12:00 +2°C° 0 mm 1 mps 742 mmHg 77%
    13:00 +2°C° 0 mm 1 mps 742 mmHg 76%
    14:00 +2°C° 0 mm 1 mps 742 mmHg 78%
    15:00 +1°C° 0 mm 1 mps 742 mmHg 81%
    16:00 +1°C° 0 mm 1 mps 742 mmHg 83%
    17:00 +1°C° 0.2 mm 1 mps 743 mmHg 85%
    18:00 +1°C° 0.2 mm 1 mps 743 mmHg 87%
    19:00 0°C° 0.2 mm 1 mps 744 mmHg 89%
    20:00 0°C° 0.3 mm 1 mps 744 mmHg 90%
    21:00 +1°C° 0.3 mm 1 mps 744 mmHg 91%
    22:00 +1°C° 0.3 mm 1 mps 744 mmHg 92%
    23:00 -1°C° 0.2 mm 2 mps 744 mmHg 92%

    23 January, Tuesday

    Time Temperature Precipitation Wind Pressure Humidity
    00:00 -1°C° 0.2 mm 2 mps 745 mmHg 92%
    01:00 -1°C° 0.2 mm 2 mps 745 mmHg 92%
    02:00 -1°C° 0.1 mm 2 mps 745 mmHg 93%
    03:00 +1°C° 0.1 mm 1 mps 745 mmHg 93%
    04:00 +1°C° 0.1 mm 1 mps 745 mmHg 93%
    05:00 +1°C° 0 mm 1 mps 746 mmHg 94%
    06:00 +1°C° 0 mm 1 mps 746 mmHg 94%
    07:00 +1°C° 0 mm 1 mps 747 mmHg 94%
    08:00 +1°C° 0.1 mm 1 mps 747 mmHg 94%
    09:00 +2°C° 0.1 mm 1 mps 748 mmHg 94%
    10:00 +2°C° 0.1 mm 1 mps 749 mmHg 94%
    11:00 +3°C° 0.1 mm 1 mps 749 mmHg 94%
    12:00 +3°C° 0.1 mm 1 mps 749 mmHg 94%
    13:00 +3°C° 0.1 mm 1 mps 750 mmHg 94%
    14:00 +3°C° 0.1 mm 1 mps 750 mmHg 95%
    15:00 +3°C° 0.1 mm 1 mps 751 mmHg 95%
    16:00 +3°C° 0.1 mm 1 mps 751 mmHg 96%
    17:00 +3°C° 0 mm 1 mps 752 mmHg 96%
    18:00 +2°C° 0 mm 1 mps 752 mmHg 96%
    19:00 +2°C° 0 mm 1 mps 753 mmHg 95%
    20:00 +2°C° 0 mm 1 mps 753 mmHg 95%
    21:00 +2°C° 0 mm 1 mps 753 mmHg 94%
    22:00 +2°C° 0 mm 1 mps 754 mmHg 94%
    23:00 +1°C° 0 mm 1 mps 754 mmHg 94%

    24 January, Wednesday

    Time Temperature Precipitation Wind Pressure Humidity
    00:00 +1°C° 0 mm 1 mps 754 mmHg 94%
    01:00 +1°C° 0 mm 1 mps 754 mmHg 94%
    02:00 -2°C° 0 mm 2 mps 754 mmHg 94%
    03:00 -2°C° 0 mm 2 mps 754 mmHg 94%
    04:00 -2°C° 0 mm 2 mps 754 mmHg 94%
    05:00 -2°C° 0 mm 2 mps 754 mmHg 94%
    06:00 -2°C° 0 mm 2 mps 754 mmHg 94%
    07:00 -2°C° 0 mm 2 mps 754 mmHg 94%
    08:00 -1°C° 0 mm 2 mps 754 mmHg 93%
    09:00 +1°C° 0 mm 2 mps 754 mmHg 92%
    10:00 +2°C° 0 mm 2 mps 754 mmHg 91%
    11:00 +2°C° 0 mm 2 mps 754 mmHg 90%
    12:00 +2°C° 0 mm 3 mps 754 mmHg 90%
    13:00 +3°C° 0 mm 3 mps 754 mmHg 89%
    14:00 +2°C° 0 mm 3 mps 754 mmHg 90%
    15:00 +3°C° 0 mm 2 mps 753 mmHg 91%
    16:00 +3°C° 0 mm 2 mps 753 mmHg 92%
    17:00 +2°C° 0 mm 2 mps 753 mmHg 93%
    18:00 +1°C° 0 mm 2 mps 753 mmHg 93%
    19:00 +1°C° 0 mm 2 mps 753 mmHg 93%
    20:00 -1°C° 0 mm 2 mps 753 mmHg 93%
    21:00 -1°C° 0 mm 3 mps 753 mmHg 92%
    22:00 -1°C° 0 mm 3 mps 753 mmHg 92%
    23:00 -1°C° 0 mm 3 mps 753 mmHg 92%

    25 January, Thursday

    Time Temperature Precipitation Wind Pressure Humidity
    00:00 -1°C° 0 mm 3 mps 753 mmHg 91%
    01:00 -1°C° 0 mm 3 mps 753 mmHg 91%
    02:00 -2°C° 0 mm 3 mps 752 mmHg 91%
    03:00 -2°C° 0 mm 3 mps 752 mmHg 91%
    04:00 -2°C° 0 mm 3 mps 751 mmHg 91%
    05:00 -2°C° 0 mm 3 mps 751 mmHg 91%
    06:00 -2°C° 0 mm 3 mps 751 mmHg 90%
    07:00 -2°C° 0 mm 3 mps 751 mmHg 90%
    08:00 -1°C° 0 mm 3 mps 751 mmHg 88%
    09:00 -1°C° 0 mm 3 mps 751 mmHg 86%
    10:00 0°C° 0 mm 3 mps 751 mmHg 84%
    11:00 +1°C° 0 mm 3 mps 750 mmHg 83%
    12:00 +2°C° 0 mm 3 mps 750 mmHg 82%
    13:00 +3°C° 0 mm 3 mps 749 mmHg 80%
    14:00 +2°C° 0 mm 3 mps 749 mmHg 81%
    15:00 +2°C° 0 mm 3 mps 749 mmHg 83%
    16:00 +1°C° 0 mm 3 mps 748 mmHg 84%
    17:00 +1°C° 0 mm 3 mps 748 mmHg 85%
    18:00 0°C° 0 mm 3 mps 748 mmHg 86%
    19:00 -2°C° 0 mm 4 mps 748 mmHg 87%
    20:00 -2°C° 0 mm 4 mps 748 mmHg 87%
    21:00 -2°C° 0 mm 4 mps 747 mmHg 87%
    22:00 -2°C° 0 mm 4 mps 747 mmHg 87%
    23:00 -2°C° 0 mm 4 mps 747 mmHg 86%
    Show more